Погода в Обже

Россия / Республика Карелия     60°49′08″N   32°54′53″E
темп.,
°C
ветер,
м/с
пор.,
м/с
влажн.,
%
обл.,
%
осадки,
мм/ч
давл.,
гПа
погр.,
м
18 мая, вт
вт1800:00+16вюв41477100 0.0 1009455
03:00+15вюв41284100 0.4 1008406
06:00+16вюв41289100 0.3 1006380
09:00+22юв51069100 0.3 1006581
12:00+26ююв5953100 0.0 10051278
15:00+28ююв494255 0.6 10052510
18:00+26ююв41146100 0.1 1004526
21:00+16св249168 1.1 100560
19 мая, ср
ср1900:00+18юв4147595 0.0 1006375
03:00+16вюв412845 0.0 1006279
06:00+17юв4147990 0.0 1005429
09:00+23юв511570 0.0 1004661
12:00+28юв614405 0.0 10032189
15:00+28ююв7184025 0.0 10023066
18:00+24ююз413502 0.2 10032207
21:00+18ююз387220 0.6 1004185
20 мая, чт
чт2000:00+15юв279114 0.3 1005133
03:00+14юв259430 0.3 100497
06:00+15ююв3890100 0.0 1005295
09:00+19ююв367397 0.2 1005757
12:00+20зсз3366100 0.4 1004749
15:00+15сз369095 1.7 1003230
18:00+16юз149214 7.2 1000216
21:00+9з3896100 7.6 1002250
21 мая, пт
пт2100:00+8зюз379798 0.0 1002243
03:00+8з41197100 0.6 1004418
06:00+8зюз3109597 0.4 1006330
09:00+9юз358941 0.4 1008315
12:00+13зюз58591 0.0 1009845
15:00+15зюз59475 0.0 10091609
18:00+15юз3848100 0.0 10101282
21:00+10зюз4117021 0.0 1011391
22 мая, сб
сб2200:00+7юз39825 0.0 1012210
03:00+6юз39895 0.0 1013216
06:00+7юз37812 0.0 1014239
09:00+12юз47596 0.0 1015729
12:00+15ююз4651100 0.0 10151311
15:00+13вюв1171100 0.1 101561
18:00+15ююз3861100 0.6 10141127
21:00+13ю31066100 0.6 1013321